Retour au catalogue

STARLINK-5701

ActifCommunicationsVLEO
NORAD 55487·PAYLOAD·🇺🇸 United States

Lancé Feb 2, 2023 depuis Cape Canaveral Space Force Station

Loading…

Prochains Passages (prochaines 24 heures)

TLE

FraisSource: CelesTrak SupGP

Époque: Sep 15, 2026, 01:51 UTC

1 55487C 23015AQ  26258.07756944  .00236510  00000+0  54454-2 0  2583
2 55487  43.0051 349.3141 0001826 261.8553 314.0298 15.41650892    15

Suivez STARLINK-5701 en temps réel avec AllMySat

Download on the App Store